GW7231 Weather Reports


time (UTC)temp
F
wind
direction
speed
knots
gust
knots
rain 1hr
in
rain 24hr
in
rain mn
in
humidity
%
barometer
mb
20260505111144 54 199 0.9 0.9 0.00 0.00 0.00 87 1014.8
20260505110640 54 203 0.0 0.0 0.00 0.00 0.00 87 1014.8
20260505110138 54 206 0.0 0.9 0.00 0.00 0.00 87 1014.8
20260505102114 53 201 0.9 0.9 0.00 0.00 0.00 87 1014.4
20260505101612 54 200 0.9 1.7 0.00 0.00 0.00 87 1014.6
20260505101108 53 189 0.0 0.0 0.00 0.00 0.00 87 1014.5
20260505100605 53 189 0.9 0.9 0.00 0.00 0.00 87 1014.3
20260505095558 53 188 0.9 0.9 0.00 0.00 0.00 87 1014.4
20260505095054 53 182 0.0 0.9 0.00 0.00 0.00 87 1014.3
20260505094551 53 182 0.0 0.0 0.00 0.00 0.00 87 1014.4
20260505094047 53 183 0.0 0.0 0.00 0.00 0.00 87 1014.3
20260505093543 53 184 0.9 0.9 0.00 0.00 0.00 87 1014.4
20260505093041 53 186 0.0 0.0 0.00 0.00 0.00 86 1014.1
20260505092538 54 186 0.0 0.0 0.00 0.00 0.00 86 1014.2
20260505092037 54 187 0.9 0.9 0.00 0.00 0.00 86 1014.1
20260505091533 54 188 0.0 0.0 0.00 0.00 0.00 86 1014.0
20260504223832 80 215 0.9 0.9 0.00 0.00 0.00 38 1011.4
20260504223327 80 215 0.9 0.9 0.00 0.00 0.00 38 1011.4
20260504222824 80 215 0.0 0.0 0.00 0.00 0.00 38 1011.4
20260504222321 80 217 0.0 0.0 0.00 0.00 0.00 38 1011.2
20260504221820 79 133 0.0 0.0 0.00 0.00 0.00 41 1011.6
20260504221316 79 207 1.7 1.7 0.00 0.00 0.00 37 1011.5
20260504220813 79 238 0.9 1.7 0.00 0.00 0.00 39 1011.8
20260504220309 79 241 0.9 0.9 0.00 0.00 0.00 41 1011.8
20260504215807 79 217 0.9 0.9 0.00 0.00 0.00 40 1011.8
20260504215304 79 218 0.0 0.0 0.00 0.00 0.00 39 1011.7
20260504214759 79 222 0.9 0.9 0.00 0.00 0.00 40 1011.9
20260504214256 79 214 0.0 0.0 0.00 0.00 0.00 40 1011.8
20260504213753 78 208 0.0 0.0 0.00 0.00 0.00 40 1012.0
20260504213249 78 208 0.9 1.7 0.00 0.00 0.00 39 1012.0
20260504212746 79 225 0.0 0.0 0.00 0.00 0.00 40 1012.1
20260504212242 78 209 0.0 0.0 0.00 0.00 0.00 42 1011.9
20260504211740 78 184 0.0 0.9 0.00 0.00 0.00 42 1011.9
20260504211236 78 181 0.0 0.0 0.00 0.00 0.00 41 1012.0
20260504210734 78 182 0.0 0.0 0.00 0.00 0.00 42 1011.9
20260504210231 78 222 1.7 1.7 0.00 0.00 0.00 37 1012.0
20260504205728 78 227 0.0 0.0 0.00 0.00 0.00 38 1012.1
20260504205225 78 229 0.0 0.0 0.00 0.00 0.00 38 1012.0
20260504204723 78 225 1.7 1.7 0.00 0.00 0.00 36 1012.1
20260504204222 78 245 2.6 2.6 0.00 0.00 0.00 34 1011.8
20260504203721 78 217 0.9 0.9 0.00 0.00 0.00 36 1012.2
20260504203218 78 187 0.9 1.7 0.00 0.00 0.00 38 1012.0
20260504202717 78 237 0.9 0.9 0.00 0.00 0.00 36 1011.9
20260504202215 77 241 0.9 0.9 0.00 0.00 0.00 39 1012.0
20260504201712 77 243 0.0 0.0 0.00 0.00 0.00 39 1012.2
20260504201209 77 218 0.0 0.0 0.00 0.00 0.00 36 1012.2
20260504200707 76 218 0.0 0.0 0.00 0.00 0.00 37 1012.2
20260504200203 76 233 0.9 0.9 0.00 0.00 0.00 38 1012.3
20260504195659 76 196 0.9 0.9 0.00 0.00 0.00 38 1012.1
20260504195155 76 192 0.0 0.0 0.00 0.00 0.00 37 1012.1
20260504194652 76 175 1.7 1.7 0.00 0.00 0.00 37 1012.0
20260504194148 76 172 0.0 0.0 0.00 0.00 0.00 37 1012.0
20260504193645 76 230 0.0 0.0 0.00 0.00 0.00 39 1012.1
20260504193143 75 222 0.0 0.0 0.00 0.00 0.00 39 1012.1
20260504192640 75 216 0.0 0.0 0.00 0.00 0.00 41 1012.1
20260504192138 75 210 0.0 0.0 0.00 0.00 0.00 40 1012.2
20260504191636 75 210 0.0 0.0 0.00 0.00 0.00 41 1012.2
20260504191132 74 214 0.0 0.0 0.00 0.00 0.00 43 1012.2
20260504190628 73 217 1.7 1.7 0.00 0.00 0.00 41 1012.4
20260504190125 74 177 1.7 1.7 0.00 0.00 0.00 42 1012.2
20260504185622 74 204 1.7 1.7 0.00 0.00 0.00 41 1012.3
20260504185118 74 205 0.9 0.9 0.00 0.00 0.00 43 1012.4
20260504184614 73 213 0.9 0.9 0.00 0.00 0.00 42 1012.6
20260504184109 73 234 0.0 0.0 0.00 0.00 0.00 42 1012.5
20260504183607 72 234 0.0 0.0 0.00 0.00 0.00 42 1012.2
20260504183105 72 235 0.9 0.9 0.00 0.00 0.00 41 1012.6
20260504182601 72 234 0.0 0.0 0.00 0.00 0.00 41 1012.5
20260504182059 72 234 0.0 0.0 0.00 0.00 0.00 42 1012.3
20260504181556 71 234 0.0 0.0 0.00 0.00 0.00 42 1012.5
20260504181054 71 248 1.7 1.7 0.00 0.00 0.00 42 1012.4
20260504180553 70 10 0.0 0.0 0.00 0.00 0.00 43 1012.2
20260504180051 70 10 0.0 0.9 0.00 0.00 0.00 43 1012.5
20260504175548 69 9 0.9 0.9 0.00 0.00 0.00 44 1012.3
20260504175045 69 8 0.0 0.0 0.00 0.00 0.00 46 1012.5
20260504174543 69 13 0.0 0.0 0.00 0.00 0.00 44 1012.3
20260504174039 70 12 0.9 0.9 0.00 0.00 0.00 43 1012.3
20260504173536 69 35 1.7 1.7 0.00 0.00 0.00 44 1012.4
20260504173034 69 39 0.0 0.0 0.00 0.00 0.00 45 1012.5
20260504172530 69 44 0.0 0.0 0.00 0.00 0.00 44 1012.3
20260504172026 69 46 0.0 0.0 0.00 0.00 0.00 43 1012.4
20260504171523 69 53 0.9 0.9 0.00 0.00 0.00 45 1012.5
20260504171020 69 53 0.0 0.0 0.00 0.00 0.00 47 1012.3
20260504170516 68 53 0.9 0.9 0.00 0.00 0.00 43 1012.3
20260504160436 66 54 0.9 0.9 0.00 0.00 0.00 50 1011.9
20260504150900 59 54 0.0 0.0 0.00 0.00 0.00 69 1011.8
20260504150356 59 54 0.0 0.0 0.00 0.00 0.00 70 1011.7
20260504141327 54 54 0.0 0.0 0.00 0.00 0.00 77 1011.4
20260504140823 54 54 0.0 0.0 0.00 0.00 0.00 78 1011.5
20260504140319 54 54 0.0 0.0 0.00 0.00 0.00 78 1011.3
20260504130748 53 54 0.0 0.0 0.00 0.00 0.00 75 1011.1
20260504130244 53 54 0.0 0.0 0.00 0.00 0.00 75 1011.0
20260504120208 54 54 0.0 0.0 0.00 0.00 0.00 75 1010.9